EW9106 Weather Reports


time (UTC)temp
F
wind
direction
speed
knots
gust
knots
rain 1hr
in
rain 24hr
in
rain mn
in
humidity
%
barometer
mb
20260903043556 81 223 0.0 0.0 0.00 0.00 0.00 82 1011.9
20260903042055 81 223 0.0 0.0 0.00 0.00 0.00 81 1011.9
20260903041556 81 223 0.0 0.0 0.00 0.00 0.00 81 1011.8
20260903041055 82 223 0.0 0.0 0.00 0.00 0.00 81 1011.8
20260903040556 82 221 0.0 0.0 0.00 0.00 0.00 81 1011.7
20260903040056 82 222 0.0 0.0 0.00 0.00 0.00 81 1011.5
20260903035555 82 219 0.0 0.0 0.00 0.00 0.00 81 1011.6
20260903035056 82 209 0.0 0.0 0.00 0.00 0.00 80 1011.5
20260903034556 82 225 0.0 0.0 0.00 0.00 0.00 80 1011.4
20260903034056 82 225 0.0 0.0 0.00 0.00 0.00 80 1011.4
20260903033555 82 207 0.0 0.0 0.00 0.00 0.00 80 1011.3
20260903032555 82 233 0.0 0.0 0.00 0.00 0.00 80 1011.3
20260903032055 82 233 0.0 0.0 0.00 0.00 0.00 79 1011.3
20260903031556 82 240 0.0 0.0 0.00 0.00 0.00 80 1011.3
20260903031057 82 253 0.0 0.0 0.00 0.00 0.00 79 1011.4
20260903030555 83 253 0.0 0.0 0.00 0.00 0.00 79 1011.5
20260903030055 83 200 0.0 0.0 0.00 0.00 0.00 79 1011.6
20260903025555 83 196 0.0 0.0 0.00 0.00 0.00 78 1011.7
20260903024555 83 192 0.0 0.0 0.00 0.00 0.00 78 1011.9
20260903024057 83 190 0.0 0.0 0.00 0.00 0.00 77 1011.9
20260903023556 83 173 0.0 0.0 0.00 0.00 0.00 77 1012.0
20260903022555 83 173 0.0 0.0 0.00 0.00 0.00 77 1012.1
20260903022056 84 173 0.0 0.0 0.00 0.00 0.00 77 1012.2
20260903021055 84 173 0.0 0.0 0.00 0.00 0.00 76 1012.1
20260903020555 84 173 0.0 0.0 0.00 0.00 0.00 76 1012.1
20260903020055 84 173 0.0 0.0 0.00 0.00 0.00 76 1012.1
20260903015556 84 173 0.0 0.0 0.00 0.00 0.00 76 1012.0
20260903015055 84 182 0.0 0.0 0.00 0.00 0.00 75 1012.0
20260903014556 85 182 0.0 0.0 0.00 0.00 0.00 75 1012.0
20260903014055 85 182 0.0 0.0 0.00 0.00 0.00 74 1012.0
20260903013555 85 173 0.0 0.0 0.00 0.00 0.00 74 1012.0
20260903013056 85 163 0.0 0.0 0.00 0.00 0.00 74 1012.0
20260903012055 85 168 0.0 0.0 0.00 0.00 0.00 73 1011.9
20260903011555 85 168 0.0 0.0 0.00 0.00 0.00 73 1011.9
20260903011057 86 168 0.0 0.0 0.00 0.00 0.00 72 1011.9
20260903010055 86 210 0.0 0.0 0.00 0.00 0.00 72 1011.9
20260903005555 86 210 0.0 0.0 0.00 0.00 0.00 72 1011.9
20260903005056 86 210 0.0 0.0 0.00 0.00 0.00 71 1011.8
20260903004555 86 234 0.0 0.0 0.00 0.00 0.00 71 1011.7
20260903004056 87 234 0.0 0.0 0.00 0.00 0.00 71 1011.7
20260903003556 87 234 0.0 0.0 0.00 0.00 0.00 71 1011.7
20260903003055 87 234 0.0 0.0 0.00 0.00 0.00 71 1011.6
20260903002555 87 234 0.0 0.0 0.00 0.00 0.00 70 1011.6
20260903002056 87 234 0.0 0.0 0.00 0.00 0.00 70 1011.6
20260903001556 87 234 0.0 0.0 0.00 0.00 0.00 70 1011.5
20260903000556 88 234 0.0 0.0 0.00 0.00 0.00 69 1011.5
20260903000056 88 235 0.0 0.0 0.00 0.00 0.00 68 1011.5
20260902235556 88 235 0.0 0.0 0.00 0.00 0.00 68 1011.5
20260902235055 88 235 0.0 0.0 0.00 0.00 0.00 68 1011.6
20260902234555 89 235 0.0 0.0 0.00 0.00 0.00 67 1011.4
20260902234056 89 235 0.0 0.0 0.00 0.00 0.00 66 1011.5
20260902233555 89 234 0.0 0.0 0.00 0.00 0.00 65 1011.4
20260902233056 89 233 0.0 0.0 0.00 0.00 0.00 65 1011.4
20260902232556 89 233 0.0 0.0 0.00 0.00 0.00 65 1011.5
20260902232056 89 234 0.0 0.0 0.00 0.00 0.00 64 1011.4
20260902231055 90 232 0.0 0.0 0.00 0.00 0.00 64 1011.5
20260902230555 90 232 0.0 0.0 0.00 0.00 0.00 64 1011.6
20260902230055 90 236 0.0 0.0 0.00 0.00 0.00 64 1011.5
20260902225556 90 237 0.0 0.0 0.00 0.00 0.00 64 1011.4
20260902225056 90 235 0.0 0.0 0.00 0.00 0.00 64 1011.5
20260902224556 90 205 0.0 0.0 0.00 0.00 0.00 63 1011.5
20260902223556 91 240 0.0 0.0 0.00 0.00 0.00 62 1011.5
20260902223055 91 223 0.0 0.0 0.00 0.00 0.00 62 1011.5
20260902222056 91 241 0.0 0.0 0.00 0.00 0.00 61 1011.6
20260902221556 91 229 0.0 0.0 0.00 0.00 0.00 61 1011.5
20260902221055 91 243 0.0 0.0 0.00 0.00 0.00 59 1011.6
20260902220557 91 259 0.0 0.0 0.00 0.00 0.00 59 1011.7
20260902220056 91 217 0.0 0.0 0.00 0.00 0.00 58 1011.6
20260902215557 91 231 0.0 0.9 0.00 0.00 0.00 58 1011.6
20260902214057 92 243 0.0 0.0 0.00 0.00 0.00 59 1011.8
20260902213557 92 200 0.0 0.0 0.00 0.00 0.00 59 1011.8
20260902212555 92 232 0.0 0.0 0.00 0.00 0.00 60 1011.8
20260902212056 92 234 0.0 0.0 0.00 0.00 0.00 60 1011.8
20260902211556 92 252 0.0 0.0 0.00 0.00 0.00 60 1011.9
20260902211056 92 213 0.0 0.9 0.00 0.00 0.00 59 1011.8
20260902210555 92 214 0.0 0.9 0.00 0.00 0.00 58 1011.9
20260902210056 92 243 0.0 0.0 0.00 0.00 0.00 58 1011.9
20260902205556 92 258 0.0 0.9 0.00 0.00 0.00 56 1011.9
20260902205056 92 212 0.0 0.0 0.00 0.00 0.00 56 1012.0
20260902204556 92 233 0.0 0.9 0.00 0.00 0.00 56 1012.0
20260902204056 92 233 0.0 0.9 0.00 0.00 0.00 56 1012.0
20260902203557 92 233 0.0 0.9 0.00 0.00 0.00 57 1012.2
20260902203056 92 246 0.0 0.0 0.00 0.00 0.00 58 1012.4
20260902202556 92 237 0.0 0.0 0.00 0.00 0.00 59 1012.4
20260902202056 92 199 0.0 0.0 0.00 0.00 0.00 60 1012.3
20260902201555 92 240 0.0 0.0 0.00 0.00 0.00 60 1012.2
20260902201056 92 205 0.0 0.0 0.00 0.00 0.00 61 1012.4
20260902200557 92 235 0.0 0.9 0.00 0.00 0.00 60 1012.5
20260902200056 92 228 0.0 0.0 0.00 0.00 0.00 59 1012.5
20260902195556 92 205 0.0 0.0 0.00 0.00 0.00 60 1012.5
20260902195056 92 225 0.0 0.0 0.00 0.00 0.00 59 1012.5
20260902194556 92 254 0.0 0.0 0.00 0.00 0.00 59 1012.5
20260902194055 92 244 0.0 0.9 0.00 0.00 0.00 59 1012.7
20260902193556 92 215 0.0 0.0 0.00 0.00 0.00 59 1012.7
20260902193056 92 186 0.0 0.0 0.00 0.00 0.00 59 1012.7
20260902192556 92 223 0.0 0.0 0.00 0.00 0.00 59 1012.9
20260902192056 92 226 0.0 0.0 0.00 0.00 0.00 59 1013.0
20260902191057 92 225 0.0 0.0 0.00 0.00 0.00 58 1012.9
20260902185556 92 234 0.0 0.0 0.00 0.00 0.00 60 1013.2
20260902184057 92 250 0.0 0.0 0.00 0.00 0.00 62 1013.4
20260902183557 92 250 0.0 0.0 0.00 0.00 0.00 62 1013.4
20260902183056 92 243 0.0 0.0 0.00 0.00 0.00 61 1013.4
20260902182556 91 236 0.0 0.0 0.00 0.00 0.00 63 1013.5
20260902182056 91 260 0.0 0.0 0.00 0.00 0.00 63 1013.5
20260902181556 91 261 0.0 0.0 0.00 0.00 0.00 63 1013.5
20260902181056 91 249 0.0 0.0 0.00 0.00 0.00 63 1013.6
20260902180556 91 248 0.0 0.0 0.00 0.00 0.00 63 1013.7
20260902180056 91 241 0.0 0.0 0.00 0.00 0.00 64 1013.7
20260902175557 91 248 0.0 0.0 0.00 0.00 0.00 63 1013.8
20260902175056 90 209 0.0 0.0 0.00 0.00 0.00 64 1013.8
20260902174556 90 258 0.0 0.0 0.00 0.00 0.00 64 1013.8
20260902174056 90 226 0.0 0.0 0.00 0.00 0.00 64 1013.8
20260902173557 90 229 0.0 0.0 0.00 0.00 0.00 64 1013.9
20260902173056 90 228 0.0 0.0 0.00 0.00 0.00 64 1014.0
20260902172556 90 238 0.0 0.9 0.00 0.00 0.00 64 1013.9
20260902172057 90 229 0.0 0.0 0.00 0.00 0.00 66 1014.0
20260902171556 90 185 0.0 0.9 0.00 0.00 0.00 66 1014.1
20260902171057 90 192 0.0 0.0 0.00 0.00 0.00 68 1014.1
20260902170556 90 198 0.0 0.0 0.00 0.00 0.00 67 1014.1
20260902170058 90 186 0.0 0.9 0.00 0.00 0.00 68 1014.2
20260902165556 89 256 0.0 0.0 0.00 0.00 0.00 67 1014.3
20260902165056 89 256 0.0 0.0 0.00 0.00 0.00 67 1014.5
20260902164557 89 256 0.0 0.0 0.00 0.00 0.00 66 1014.5
20260902164056 89 240 0.0 0.0 0.00 0.00 0.00 67 1014.5
20260902163556 89 238 0.0 0.0 0.00 0.00 0.00 68 1014.6
20260902163056 89 238 0.0 0.0 0.00 0.00 0.00 67 1014.6
20260902162556 89 223 0.0 0.0 0.00 0.00 0.00 67 1014.5
20260902162057 88 210 0.0 0.0 0.00 0.00 0.00 68 1014.6
20260902161556 88 246 0.0 0.0 0.00 0.00 0.00 70 1014.5
20260902161057 88 245 0.0 0.0 0.00 0.00 0.00 70 1014.5
20260902160556 87 209 0.0 0.0 0.00 0.00 0.00 71 1014.5
20260902160057 87 235 0.0 0.0 0.00 0.00 0.00 71 1014.5
20260902155557 86 249 0.0 0.0 0.00 0.00 0.00 71 1014.4
20260902154557 86 240 0.0 0.0 0.00 0.00 0.00 72 1014.4
20260902154056 86 223 0.0 0.0 0.00 0.00 0.00 73 1014.3
20260902153057 85 255 0.0 0.0 0.00 0.00 0.00 76 1014.4
20260902152557 84 261 0.0 0.0 0.00 0.00 0.00 77 1014.4
20260902151556 83 199 0.0 0.0 0.00 0.00 0.00 80 1014.3
20260902151056 83 197 0.0 0.0 0.00 0.00 0.00 80 1014.3
20260902150056 83 225 0.0 0.0 0.00 0.00 0.00 81 1014.3
20260902145556 82 223 0.0 0.0 0.00 0.00 0.00 81 1014.4
20260902145056 82 220 0.0 0.0 0.00 0.00 0.00 82 1014.4
20260902144557 81 217 0.0 0.0 0.00 0.00 0.00 82 1014.4
20260902144056 81 181 0.0 0.0 0.00 0.00 0.00 83 1014.4
20260902143557 81 199 0.0 0.0 0.00 0.00 0.00 83 1014.4
20260902143057 81 199 0.0 0.0 0.00 0.00 0.00 83 1014.4
20260902142557 80 198 0.0 0.0 0.00 0.00 0.00 83 1014.3
20260902142057 80 197 0.0 0.0 0.00 0.00 0.00 84 1014.2
20260902141556 80 192 0.0 0.0 0.00 0.00 0.00 84 1014.2
20260902140558 79 192 0.0 0.0 0.00 0.00 0.00 85 1014.2
20260902140056 79 192 0.0 0.0 0.00 0.00 0.00 86 1014.2
20260902135557 79 187 0.0 0.0 0.00 0.00 0.00 86 1014.1
20260902134557 78 179 0.0 0.0 0.00 0.00 0.00 86 1014.1
20260902134057 78 173 0.0 0.0 0.00 0.00 0.00 88 1014.1
20260902133556 78 162 0.0 0.0 0.00 0.00 0.00 88 1014.1
20260902133057 77 174 0.0 0.0 0.00 0.00 0.00 89 1014.3
20260902132557 77 174 0.0 0.0 0.00 0.00 0.00 90 1014.3
20260902132057 77 174 0.0 0.0 0.00 0.00 0.00 91 1014.3
20260902131557 76 166 0.0 0.0 0.00 0.00 0.00 91 1014.3
20260902130557 76 166 0.0 0.0 0.00 0.00 0.00 92 1014.4
20260902130057 76 165 0.0 0.0 0.00 0.00 0.00 92 1014.3
20260902125057 75 170 0.0 0.0 0.00 0.00 0.00 92 1014.5
20260902124556 76 0 0.0 0.0 0.00 0.00 0.00 91 1014.3
20260902124057 76 0 0.0 0.0 0.00 0.00 0.00 91 1014.3
20260902123556 76 0 0.0 0.0 0.00 0.00 0.00 91 1014.4
20260902122557 76 0 0.0 0.0 0.00 0.00 0.00 91 1014.4
20260902122056 76 0 0.0 0.0 0.00 0.00 0.00 91 1014.4
20260902121557 76 0 0.0 0.0 0.00 0.00 0.00 91 1014.3
20260902121057 76 0 0.0 0.0 0.00 0.00 0.00 91 1014.2
20260902120557 76 0 0.0 0.0 0.00 0.00 0.00 91 1014.2
20260902120057 76 0 0.0 0.0 0.00 0.00 0.00 91 1014.2
20260902115557 76 0 0.0 0.0 0.00 0.00 0.00 91 1014.1
20260902115057 76 0 0.0 0.0 0.00 0.00 0.00 91 1014.2
20260902114557 76 0 0.0 0.0 0.00 0.00 0.00 91 1014.1
20260902114057 76 0 0.0 0.0 0.00 0.00 0.00 91 1014.0
20260902112558 76 0 0.0 0.0 0.00 0.00 0.00 91 1013.9
20260902112057 76 0 0.0 0.0 0.00 0.00 0.00 91 1013.8
20260902111557 76 0 0.0 0.0 0.00 0.00 0.00 91 1013.8
20260902110557 76 0 0.0 0.0 0.00 0.00 0.00 91 1013.6
20260902110057 76 0 0.0 0.0 0.00 0.00 0.00 91 1013.6
20260902105556 76 0 0.0 0.0 0.00 0.00 0.00 91 1013.6
20260902105057 76 0 0.0 0.0 0.00 0.00 0.00 91 1013.7
20260902104557 76 0 0.0 0.0 0.00 0.00 0.00 91 1013.6
20260902104057 76 0 0.0 0.0 0.00 0.00 0.00 91 1013.5
20260902103556 76 0 0.0 0.0 0.00 0.00 0.00 91 1013.4
20260902103057 76 0 0.0 0.0 0.00 0.00 0.00 91 1013.3
20260902102556 76 0 0.0 0.0 0.00 0.00 0.00 91 1013.3
20260902102057 76 0 0.0 0.0 0.00 0.00 0.00 91 1013.3
20260902101556 76 172 0.0 0.0 0.00 0.00 0.00 91 1013.5
20260902101057 76 172 0.0 0.0 0.00 0.00 0.00 91 1013.5
20260902100558 76 172 0.0 0.0 0.00 0.00 0.00 91 1013.5
20260902100057 76 172 0.0 0.0 0.00 0.00 0.00 91 1013.5
20260902095557 76 172 0.0 0.0 0.00 0.00 0.00 91 1013.5
20260902095057 76 172 0.0 0.0 0.00 0.00 0.00 91 1013.4
20260902094557 76 172 0.0 0.0 0.00 0.00 0.00 91 1013.4
20260902094057 76 172 0.0 0.0 0.00 0.00 0.00 91 1013.4
20260902093556 76 171 0.0 0.0 0.00 0.00 0.00 91 1013.4
20260902093057 76 171 0.0 0.0 0.00 0.00 0.00 92 1013.6
20260902092557 76 171 0.0 0.0 0.00 0.00 0.00 92 1013.6
20260902092057 76 171 0.0 0.0 0.00 0.00 0.00 92 1013.6
20260902091556 76 171 0.0 0.0 0.00 0.00 0.00 92 1013.5
20260902091057 76 171 0.0 0.0 0.00 0.00 0.00 92 1013.4
20260902090558 76 173 0.0 0.0 0.00 0.00 0.00 92 1013.5
20260902090057 76 172 0.0 0.0 0.00 0.00 0.00 91 1013.4
20260902085057 76 167 0.0 0.0 0.00 0.00 0.00 91 1013.6
20260902084558 76 167 0.0 0.0 0.00 0.00 0.00 91 1013.6
20260902084058 76 167 0.0 0.0 0.00 0.00 0.00 91 1013.6
20260902083557 76 171 0.0 0.0 0.00 0.00 0.00 91 1013.6
20260902082058 76 171 0.0 0.0 0.00 0.00 0.00 91 1013.4
20260902081557 76 171 0.0 0.0 0.00 0.00 0.00 91 1013.3
20260902081057 76 171 0.0 0.0 0.00 0.00 0.00 91 1013.2
20260902080557 76 171 0.0 0.0 0.00 0.00 0.00 91 1013.2
20260902080058 76 172 0.0 0.0 0.00 0.00 0.00 91 1013.2
20260902075557 76 181 0.0 0.0 0.00 0.00 0.00 91 1013.2
20260902075057 76 180 0.0 0.0 0.00 0.00 0.00 91 1013.2
20260902074558 76 182 0.0 0.0 0.00 0.00 0.00 91 1013.3
20260902074058 76 182 0.0 0.0 0.00 0.00 0.00 91 1013.2
20260902073557 76 182 0.0 0.0 0.00 0.00 0.00 91 1013.1
20260902073057 76 182 0.0 0.0 0.00 0.00 0.00 91 1013.1
20260902072057 76 182 0.0 0.0 0.00 0.00 0.00 91 1013.1
20260902071557 76 182 0.0 0.0 0.00 0.00 0.00 91 1013.2
20260902071057 76 182 0.0 0.0 0.00 0.00 0.00 91 1013.2
20260902070557 77 182 0.0 0.0 0.00 0.00 0.00 91 1013.2
20260902070057 77 182 0.0 0.0 0.00 0.00 0.00 91 1013.2
20260902065557 77 182 0.0 0.0 0.00 0.00 0.00 90 1013.2
20260902065058 77 182 0.0 0.0 0.00 0.00 0.00 90 1013.1
20260902064557 77 182 0.0 0.0 0.00 0.00 0.00 90 1013.2
20260902064058 77 182 0.0 0.0 0.00 0.00 0.00 90 1013.1
20260902063057 77 182 0.0 0.0 0.00 0.00 0.00 90 1013.1
20260902062557 77 182 0.0 0.0 0.00 0.00 0.00 90 1013.3
20260902062057 77 182 0.0 0.0 0.00 0.00 0.00 90 1013.3
20260902061558 77 182 0.0 0.0 0.00 0.00 0.00 90 1013.4
20260902061057 77 182 0.0 0.0 0.00 0.00 0.00 90 1013.3
20260902060557 77 182 0.0 0.0 0.00 0.00 0.00 90 1013.4
20260902060057 77 182 0.0 0.0 0.00 0.00 0.00 90 1013.4
20260902055058 77 182 0.0 0.0 0.00 0.00 0.00 90 1013.5
20260902054558 77 182 0.0 0.0 0.00 0.00 0.00 90 1013.5
20260902053557 78 182 0.0 0.0 0.00 0.00 0.00 90 1013.5
20260902052057 78 182 0.0 0.0 0.00 0.00 0.00 90 1013.3
20260902051557 78 182 0.0 0.0 0.00 0.00 0.00 90 1013.3
20260902051057 78 182 0.0 0.0 0.00 0.00 0.00 90 1013.4
20260902050557 78 182 0.0 0.0 0.00 0.00 0.00 90 1013.5
20260902050057 78 182 0.0 0.0 0.00 0.00 0.00 90 1013.4
20260902045057 78 182 0.0 0.0 0.00 0.00 0.00 91 1013.2
20260902044557 78 182 0.0 0.0 0.00 0.00 0.00 91 1013.1
20260902044058 78 182 0.0 0.0 0.00 0.00 0.00 91 1013.1